| time (UTC) | temp F | wind direction | speed MPH | gust MPH | rain 1hr in | rain 24hr in | rain mn in | humidity % | barometer mb |
| 20260510060056 | 49 | 292 | 0.0 | 0.0 | 0.00 | 0.01 | 0.00 | 1 | 1012.9 |
| 20260510054554 | 50 | 292 | 0.0 | 0.0 | 0.00 | 0.01 | 0.00 | 1 | 1012.9 |
| 20260510053048 | 50 | 292 | 0.0 | 0.0 | 0.00 | 0.01 | 0.00 | 1 | 1012.8 |
| 20260510051543 | 50 | 292 | 0.0 | 0.0 | 0.00 | 0.01 | 0.00 | 1 | 1012.9 |
| 20260510050044 | 50 | 292 | 0.0 | 0.0 | 0.00 | 0.01 | 0.00 | 1 | 1012.8 |
| 20260510044534 | 51 | 292 | 0.0 | 0.0 | 0.00 | 0.01 | 0.00 | 1 | 1012.8 |
| 20260510043034 | 51 | 292 | 0.0 | 0.0 | 0.00 | 0.01 | 0.00 | 1 | 1012.7 |
| 20260510041526 | 51 | 292 | 0.0 | 0.0 | 0.00 | 0.01 | 0.00 | 1 | 1012.7 |
| 20260510040022 | 51 | 292 | 0.0 | 0.0 | 0.00 | 0.01 | 0.00 | 1 | 1012.7 |
| 20260510034522 | 52 | 292 | 0.0 | 0.0 | 0.00 | 0.01 | 0.01 | 1 | 1012.7 |
| 20260510033014 | 52 | 292 | 0.0 | 0.0 | 0.00 | 0.01 | 0.01 | 1 | 1012.8 |
| 20260510031514 | 53 | 292 | 0.0 | 0.0 | 0.00 | 0.01 | 0.01 | 1 | 1012.7 |
| 20260510030016 | 54 | 292 | 0.0 | 0.0 | 0.00 | 0.01 | 0.01 | 1 | 1012.7 |
| 20260510024504 | 54 | 292 | 0.0 | 0.0 | 0.00 | 0.01 | 0.01 | 1 | 1012.6 |
| 20260510023059 | 55 | 292 | 0.0 | 0.0 | 0.00 | 0.01 | 0.01 | 8 | 1012.5 |
| 20260510021600 | 56 | 292 | 0.0 | 0.0 | 0.00 | 0.01 | 0.01 | 11 | 1012.3 |
| 20260510020051 | 57 | 292 | 0.0 | 0.0 | 0.00 | 0.01 | 0.01 | 18 | 1012.0 |
| 20260510014546 | 58 | 292 | 0.0 | 0.0 | 0.00 | 0.01 | 0.01 | 26 | 1011.7 |
| 20260510013041 | 60 | 292 | 0.0 | 0.0 | 0.00 | 0.01 | 0.01 | 41 | 1011.4 |
| 20260510011545 | 61 | 292 | 0.0 | 0.0 | 0.00 | 0.01 | 0.01 | 52 | 1011.2 |
| 20260510010033 | 63 | 292 | 0.0 | 0.0 | 0.00 | 0.01 | 0.01 | 59 | 1010.9 |
| 20260510004528 | 65 | 292 | 0.0 | 0.0 | 0.00 | 0.01 | 0.01 | 64 | 1010.7 |
| 20260510003035 | 67 | 292 | 0.0 | 0.0 | 0.00 | 0.01 | 0.01 | 66 | 1010.5 |
| 20260510001522 | 69 | 292 | 0.0 | 0.0 | 0.00 | 0.01 | 0.01 | 67 | 1010.4 |
| 20260510000015 | 71 | 292 | 0.0 | 0.0 | 0.00 | 0.01 | 0.01 | 62 | 1010.4 |
| 20260509234518 | 73 | 292 | 0.0 | 0.0 | 0.00 | 0.01 | 0.01 | 55 | 1010.3 |
| 20260509233006 | 74 | 279 | 0.0 | 0.0 | 0.00 | 0.01 | 0.01 | 54 | 1010.4 |
| 20260509231507 | 74 | 279 | 0.0 | 0.0 | 0.00 | 0.01 | 0.01 | 51 | 1010.3 |
| 20260509230100 | 75 | 243 | 0.0 | 0.0 | 0.00 | 0.01 | 0.01 | 50 | 1010.1 |
| 20260509224558 | 75 | 267 | 0.0 | 0.0 | 0.00 | 0.01 | 0.01 | 51 | 1010.0 |
| 20260509223051 | 74 | 275 | 0.0 | 0.0 | 0.00 | 0.01 | 0.01 | 52 | 1010.0 |
| 20260509221544 | 74 | 304 | 0.0 | 0.0 | 0.00 | 0.01 | 0.01 | 51 | 1010.0 |
| 20260509220041 | 74 | 313 | 0.0 | 0.0 | 0.00 | 0.01 | 0.01 | 52 | 1010.0 |
| 20260509214535 | 74 | 320 | 0.0 | 0.0 | 0.00 | 0.01 | 0.01 | 51 | 1009.9 |
| 20260509213031 | 75 | 297 | 0.0 | 0.0 | 0.00 | 0.01 | 0.01 | 52 | 1009.8 |
| 20260509211526 | 75 | 324 | 0.0 | 0.0 | 0.00 | 0.01 | 0.01 | 52 | 1009.9 |
| 20260509210022 | 74 | 286 | 0.0 | 0.0 | 0.00 | 0.01 | 0.01 | 54 | 1010.0 |
| 20260509204520 | 73 | 346 | 0.0 | 0.0 | 0.00 | 0.01 | 0.01 | 55 | 1010.3 |
| 20260509203013 | 73 | 306 | 0.0 | 0.0 | 0.00 | 0.01 | 0.01 | 54 | 1010.3 |
| 20260509201509 | 72 | 34 | 0.0 | 0.0 | 0.00 | 0.01 | 0.01 | 55 | 1010.4 |
| 20260509200006 | 72 | 336 | 0.0 | 0.0 | 0.00 | 0.01 | 0.01 | 55 | 1010.5 |
| 20260509194559 | 72 | 268 | 0.0 | 0.0 | 0.00 | 0.01 | 0.01 | 58 | 1010.6 |
| 20260509193055 | 72 | 355 | 0.0 | 0.0 | 0.00 | 0.01 | 0.01 | 59 | 1010.5 |
| 20260509191551 | 71 | 284 | 0.0 | 0.0 | 0.00 | 0.01 | 0.01 | 60 | 1010.4 |
| 20260509190047 | 69 | 302 | 0.0 | 0.0 | 0.00 | 0.01 | 0.01 | 65 | 1010.6 |
| 20260509184552 | 70 | 317 | 0.0 | 0.0 | 0.00 | 0.01 | 0.01 | 61 | 1010.5 |
| 20260509183038 | 69 | 355 | 0.0 | 0.0 | 0.00 | 0.01 | 0.01 | 66 | 1010.5 |
| 20260509181548 | 67 | 300 | 0.0 | 0.0 | 0.00 | 0.01 | 0.01 | 67 | 1010.6 |
| 20260509180029 | 67 | 316 | 0.0 | 0.0 | 0.00 | 0.01 | 0.01 | 67 | 1010.6 |
| 20260509174525 | 65 | 348 | 0.0 | 0.0 | 0.00 | 0.01 | 0.01 | 65 | 1010.9 |
| 20260509173022 | 65 | 273 | 0.0 | 0.0 | 0.00 | 0.01 | 0.01 | 60 | 1010.9 |
| 20260509171516 | 64 | 240 | 0.0 | 0.0 | 0.00 | 0.01 | 0.01 | 59 | 1010.9 |
| 20260509170014 | 63 | 239 | 0.0 | 0.0 | 0.00 | 0.01 | 0.01 | 54 | 1011.0 |
| 20260509164507 | 62 | 306 | 0.0 | 0.0 | 0.00 | 0.01 | 0.01 | 45 | 1011.1 |
| 20260509163004 | 61 | 345 | 0.0 | 0.0 | 0.00 | 0.01 | 0.01 | 40 | 1011.0 |
| 20260509161605 | 62 | 291 | 0.0 | 0.0 | 0.00 | 0.01 | 0.01 | 40 | 1011.1 |
| 20260509160056 | 61 | 307 | 0.0 | 0.0 | 0.00 | 0.01 | 0.01 | 26 | 1011.1 |
| 20260509154550 | 58 | 279 | 0.0 | 0.0 | 0.00 | 0.01 | 0.01 | 1 | 1011.1 |
| 20260509153059 | 57 | 279 | 0.0 | 0.0 | 0.00 | 0.01 | 0.01 | 1 | 1011.0 |
| 20260509151547 | 56 | 279 | 0.0 | 0.0 | 0.00 | 0.01 | 0.01 | 1 | 1010.9 |
| 20260509150037 | 56 | 279 | 0.0 | 0.0 | 0.01 | 0.01 | 0.01 | 2 | 1010.8 |
| 20260509144534 | 56 | 279 | 0.0 | 0.0 | 0.01 | 0.01 | 0.01 | 2 | 1010.7 |
| 20260509143030 | 56 | 279 | 0.0 | 0.0 | 0.01 | 0.01 | 0.01 | 9 | 1010.8 |
| 20260509141524 | 56 | 279 | 0.0 | 0.0 | 0.01 | 0.01 | 0.01 | 15 | 1010.7 |
| 20260509140020 | 57 | 265 | 0.0 | 0.0 | 0.00 | 0.00 | 0.00 | 34 | 1010.7 |
| 20260509134516 | 58 | 280 | 0.0 | 0.0 | 0.00 | 0.00 | 0.00 | 46 | 1010.6 |
| 20260509133011 | 58 | 259 | 0.0 | 0.0 | 0.00 | 0.00 | 0.00 | 53 | 1010.4 |
| 20260509131506 | 58 | 259 | 0.0 | 0.0 | 0.00 | 0.00 | 0.00 | 56 | 1010.4 |
| 20260509130002 | 58 | 240 | 0.0 | 0.0 | 0.00 | 0.00 | 0.00 | 54 | 1010.1 |
| 20260509124610 | 58 | 113 | 0.0 | 0.0 | 0.00 | 0.00 | 0.00 | 47 | 1009.8 |
| 20260509123054 | 58 | 113 | 0.0 | 0.0 | 0.00 | 0.00 | 0.00 | 48 | 1010.0 |
| 20260509121551 | 57 | 113 | 0.0 | 0.0 | 0.00 | 0.00 | 0.00 | 43 | 1009.8 |
| 20260509120058 | 56 | 118 | 0.0 | 0.0 | 0.00 | 0.00 | 0.00 | 39 | 1009.3 |
| 20260509114539 | 54 | 148 | 0.0 | 0.0 | 0.00 | 0.00 | 0.00 | 22 | 1009.7 |
| 20260509113036 | 53 | 132 | 0.0 | 0.0 | 0.00 | 0.00 | 0.00 | 1 | 1009.6 |
| 20260509111531 | 51 | 126 | 0.0 | 0.0 | 0.00 | 0.00 | 0.00 | 1 | 1009.6 |
| 20260509110026 | 51 | 236 | 0.0 | 0.0 | 0.00 | 0.00 | 0.00 | 1 | 1009.7 |
| 20260509104522 | 50 | 206 | 0.0 | 0.0 | 0.00 | 0.00 | 0.00 | 1 | 1009.6 |
| 20260509103018 | 50 | 206 | 0.0 | 0.0 | 0.00 | 0.00 | 0.00 | 1 | 1009.3 |
| 20260509101515 | 50 | 206 | 0.0 | 0.0 | 0.00 | 0.00 | 0.00 | 1 | 1009.3 |
| 20260509100010 | 50 | 206 | 0.0 | 0.0 | 0.00 | 0.00 | 0.00 | 1 | 1009.6 |
| 20260509094509 | 49 | 206 | 0.0 | 0.0 | 0.00 | 0.00 | 0.00 | 1 | 1009.7 |
| 20260509093100 | 49 | 207 | 0.0 | 0.0 | 0.00 | 0.00 | 0.00 | 1 | 1010.1 |
| 20260509091627 | 49 | 207 | 0.0 | 0.0 | 0.00 | 0.00 | 0.00 | 1 | 1010.3 |
| 20260509090052 | 49 | 207 | 0.0 | 0.0 | 0.00 | 0.00 | 0.00 | 1 | 1010.4 |
| 20260509084548 | 48 | 207 | 0.0 | 0.0 | 0.00 | 0.00 | 0.00 | 1 | 1010.2 |
| 20260509083044 | 48 | 207 | 0.0 | 0.0 | 0.00 | 0.00 | 0.00 | 1 | 1010.2 |
| 20260509081538 | 48 | 207 | 0.0 | 0.0 | 0.00 | 0.00 | 0.00 | 1 | 1010.3 |
| 20260509080037 | 47 | 207 | 0.0 | 0.0 | 0.00 | 0.00 | 0.00 | 1 | 1010.1 |
| 20260509074529 | 47 | 207 | 0.0 | 0.0 | 0.00 | 0.01 | 0.00 | 1 | 1010.2 |
| 20260509073035 | 46 | 207 | 0.0 | 0.0 | 0.00 | 0.01 | 0.00 | 1 | 1010.4 |
| 20260509071520 | 46 | 207 | 0.0 | 0.0 | 0.00 | 0.01 | 0.00 | 1 | 1010.4 |
| 20260509070016 | 46 | 207 | 0.0 | 0.0 | 0.00 | 0.01 | 0.00 | 1 | 1010.5 |
| 20260509064511 | 46 | 207 | 0.0 | 0.0 | 0.00 | 0.01 | 0.00 | 1 | 1010.4 |
| 20260509063012 | 46 | 207 | 0.0 | 0.0 | 0.00 | 0.01 | 0.00 | 1 | 1010.3 |
| 20260509061503 | 46 | 207 | 0.0 | 0.0 | 0.00 | 0.01 | 0.00 | 1 | 1010.5 |